This is the latest recevied weather packets stored in our database for station/object KEFK. If no packets are shown the sender has not sent any weather packets the latest 10 day(s).
| Time | Temp. | Humidity | Pressure | Rain* | Wind** | Luminosity | Snow |
|---|---|---|---|---|---|---|---|
| 1777770809 | 5.56° C | 70% | 1011.9 hPa | - | - | - | - |
| 1777768411 | 5.56° C | 70% | 1011.5 hPa | - | - | - | - |
| 1777767932 | 5.56° C | 70% | 1011.5 hPa | - | - | - | - |
| 1777767208 | 5.56° C | 70% | 1011.2 hPa | - | - | - | - |
| 1777766010 | 5.56° C | 70% | 1011.5 hPa | - | - | - | - |
| 1777765412 | 5.56° C | 70% | 1011.5 hPa | - | - | - | - |
| 1777764814 | 6.67° C | 65% | 1011.2 hPa | - | - | - | - |
| 1777761811 | 6.67° C | 70% | 1010.5 hPa | - | - | - | - |
| 1777761214 | 6.67° C | 70% | 1010.5 hPa | - | - | - | - |
| 1777760608 | 6.67° C | 70% | 1010.5 hPa | - | - | - | - |
| 1777759413 | 7.78° C | 65% | 1010.5 hPa | - | - | - | - |
| 1777758809 | 8.89° C | 57% | 1010.5 hPa | - | - | - | - |
| 1777757611 | 7.78° C | 65% | 1010.5 hPa | - | - | - | - |
| 1777756414 | 8.89° C | 61% | 1010.5 hPa | - | - | - | - |
| 1777750411 | 7.78° C | 65% | 1010.8 hPa | - | - | - | - |
| 1777745013 | 7.78° C | 70% | 1011.2 hPa | - | - | - | - |
| 1777744413 | 6.67° C | 75% | 1011.2 hPa | - | - | - | - |
| 1777737337 | 5.56° C | 81% | 1011.5 hPa | - | - | - | - |
| 1777736015 | 5° C | 86% | 1011.9 hPa | - | - | - | - |
| 1777735410 | 5° C | 86% | 1011.9 hPa | - | - | - | - |
| 1777734811 | 5° C | 80% | 1011.9 hPa | - | - | - | - |
| 1777733011 | 5° C | 80% | 1011.9 hPa | - | - | - | - |
| 1777732413 | 3.89° C | 86% | 1012.2 hPa | - | - | - | - |
| 1777731810 | 3.89° C | 86% | 1012.2 hPa | - | - | - | - |
| 1777731210 | 3.89° C | 86% | 1012.2 hPa | - | - | - | - |
* Rain since midnight (hover to see other rain measurements)
** Current wind speed in m/s (hover to see current wind gust speed)